sat.trackr.live / text

‹ back to catalog

STARLINK-30820

NORAD 58190 · 2023-167R

PAYLOAD ACTIVE UNKNOWN

§ Identity

Operator
Country
US
Launch date
2023-10-30
Launch site
AFETR
Launch vehicle
Mass (kg)
RCS (m²)

Purposes: comms

External: N2YO · Heavens-Above · Gunter

§ Orbital elements

Epoch: 2026-05-25T03:43:39.671328Z

Period
94.27 min
Inclination
43.0003°
Eccentricity
0.0001098
Mean motion
15.27584992 rev/d
Perigee alt
482.3 km
Apogee alt
483.8 km
Semi-major
6,861.2 km
B*
3.6929e-5
RAAN
71.2036°
Arg perigee
248.6743°
Mean anomaly
111.3991°
Rev number
14,268

§ Raw data

STARLINK-308201 58190U 23167R   26145.15532027  .00000754  00000+0  36929-4 0  99932 58190  43.0003  71.2036 0001098 248.6743 111.3991 15.27584992142684

JSON: /api/v1/satellites/58190 · /tle

For live sub-satellite position, see the globe view (requires WebGL).

§ Visibility from observer

Set your observer location to see the next 7 days of passes ≥ 10°. The values pass through the URL so the page stays shareable.

No JS? Fill the form by hand. The geolocation button needs JavaScript.